TRANSIT 5B-1 DEB, 3166

Orbit data source: Space-Track

TRANSIT 5B-1 DEB, 3166 is space debris in LEO originally from a launch on Sat, 28 Sep 1963 UTC launched from the Air Force Western Test Range (AFWTR). Debris objects in space refer to the collection of defunct objects orbiting the Earth. Examples of debris include non-operational satellites, rocket bodies, and fragments generated from explosions, collisions, or faulty payload assembly.

Loading next visibility...
TRANSIT 5B-1 DEB details
Identifier
3166, 1963-038H
Orbit
LEO
Last TLE update16 hours ago
Origin
Flag of USUSN BuWeps (US)
ManufacturerUnknown
MissionSpacecraft
Bus & MotorUnknown
MassUnknown
Launch date (UTC)
1963-09-28 (61 years ago)
Launch vehicleUnknown
Launch site
Air Force Western Test Range (AFWTR)
Object type
Payload
Rocket body
Debris
Shape & HBRUnknown
Radar Cross SectionMedium (>0.1 m² and <1 m²)

Expand to show TLE details & history

TLE from 16 hours ago
0 TRANSIT 5B-1 DEB
1 03166U 63038H   24355.95959081  .00000144  00000-0  22811-3 0  9997
2 03166  89.9827 334.3684 0042912 129.9985 242.2127 13.44865847518579
Epoch: 2024-12-20T23:01Z
Definitive object data (Epoch: 2024-12-20T23:01:48.645Z)
Latitude11.73224°
Longitude-101.09833°
Altitude1,108.452 km
Speed7.292 km/s
True Right ascension22h 17m 29s
True Declination11° 40' 02"
Sunlit
Object was in daylight at TLE epoch
Visualization TLE readout
Latitude-12.49451°
Longitude-101.10687°
Altitude1,121.269 km
Speed7.279 km/s
Apparent Right ascension23h 45m 13s
Apparent Declination-27° 38' 17"
Sunlit
Object is in daylight
Visualization observer readout
Local Sidereal Time14:01:03
Azimuth76.84° E
Elevation-59.456°
Doppler factor1
Orbital elements
Apogee altitude1,120.305 km
Perigee altitude1,056.226 km
Semi-major axis7,466.402 km
Eccentricity0.0042912
Inclination89.9827°
RAAN334.3684°
Arg. of periapsis129.9985°
True anomaly241.77876°
Mean anomaly242.2127°
Eccentric anomaly241.99562°
Mean motion3.36416 °/min
BSTAR0.00022811
Orbital period107.01 mins
Loading maneuver chart data...

TRANSIT 5B-1 DEB Visibility forecast

Observer location: undefined°, undefined

Span
Click to sort rows by Start time (UTC) header in descending order
Start Az.
Max El. time (UTC)
Max El. Az.
Max El.
End time (UTC)
End Az.
11 mins2024-12-21 22:17:50.503Z141.242° SSE2024-12-21 22:23:50.503Z68.954° E31.31°2024-12-21 22:28:50.503Z16.115° NNE
10 mins2024-12-22 00:05:50.503Z221.027° SW2024-12-22 00:09:50.503Z269.473° W29.365°2024-12-22 00:15:50.503Z338.153° N
5 mins2024-12-22 09:32:50.503Z55.259° ENE2024-12-22 09:34:50.503Z75.784° E15.513°2024-12-22 09:37:50.503Z105.79° ESE
11 mins2024-12-22 11:17:50.503Z356.947° N2024-12-22 11:22:50.503Z247.791° W43.889°2024-12-22 11:28:50.503Z191.015° SSW
|